Tracking 20066 objects as of 6-Dec-2019
HD Live streaming from Space Station
objects crossing your sky now

LANDSAT 2

Track LANDSAT 2 now!
10-day predictions
LANDSAT 2 is classified as:


NORAD ID: 7615
Int'l Code: 1975-004A
Perigee: 905.5 km
Apogee: 919.4 km
Inclination: 98.8 °
Period: 103.1 minutes
Semi major axis: 7283 km
RCS: 3.0869 m2 (large)
Launch date: January 22, 1975
Source: United States (US)
Launch site: AIR FORCE WESTERN TEST RANGE (AFWTR)
aabbcc
Your satellite tracking list
Your tracking list is empty




NASA's NSSDC Master Catalog

Two Line Element Set (TLE):
1  7615U 75004A   19340.52124116  .00000226  00000-0  19277-3 0  9993
2  7615  98.7508 342.3008 0009563  52.7793 307.4242 13.96678566286504
Source of the keplerian elements: AFSPC